| time (UTC) | temp F | wind direction | speed knots | gust knots | rain 1hr in | rain 24hr in | rain mn in | humidity % | barometer mb |
| 20260901084142 | 51 | 217 | 0.0 | 0.0 | 0.00 | 0.04 | 0.04 | 99 | 1031.2 |
| 20260901083641 | 51 | 221 | 0.0 | 0.0 | 0.00 | 0.04 | 0.04 | 99 | 1031.0 |
| 20260901083140 | 51 | 226 | 0.0 | 0.0 | 0.00 | 0.04 | 0.04 | 99 | 1030.8 |
| 20260901082634 | 51 | 195 | 0.0 | 0.0 | 0.00 | 0.04 | 0.04 | 99 | 1031.2 |
| 20260901082130 | 52 | 213 | 0.0 | 0.0 | 0.00 | 0.04 | 0.04 | 99 | 1031.3 |
| 20260901081625 | 52 | 209 | 0.0 | 0.0 | 0.00 | 0.04 | 0.04 | 99 | 1031.3 |
| 20260901081120 | 52 | 216 | 0.0 | 0.0 | 0.00 | 0.04 | 0.04 | 99 | 1031.4 |
| 20260901080620 | 52 | 196 | 0.9 | 0.9 | 0.00 | 0.04 | 0.04 | 99 | 1031.3 |
| 20260901080118 | 52 | 219 | 0.0 | 0.0 | 0.00 | 0.04 | 0.04 | 99 | 1031.7 |
| 20260901075614 | 52 | 222 | 0.0 | 0.0 | 0.00 | 0.04 | 0.04 | 99 | 1031.4 |
| 20260901075114 | 52 | 206 | 0.0 | 0.0 | 0.00 | 0.04 | 0.04 | 99 | 1031.7 |
| 20260901074614 | 52 | 221 | 0.0 | 0.9 | 0.00 | 0.04 | 0.04 | 99 | 1031.8 |
| 20260901074114 | 52 | 206 | 0.9 | 0.9 | 0.00 | 0.04 | 0.04 | 99 | 1031.9 |
| 20260901073611 | 52 | 201 | 0.0 | 0.0 | 0.00 | 0.04 | 0.04 | 99 | 1031.8 |
| 20260901073105 | 52 | 215 | 0.0 | 0.0 | 0.00 | 0.04 | 0.04 | 99 | 1031.8 |
| 20260901072601 | 52 | 219 | 0.0 | 0.0 | 0.00 | 0.04 | 0.04 | 99 | 1031.8 |
| 20260901072055 | 52 | 237 | 0.9 | 0.9 | 0.00 | 0.04 | 0.04 | 99 | 1032.1 |
| 20260901071555 | 52 | 183 | 1.7 | 1.7 | 0.00 | 0.04 | 0.04 | 99 | 1031.5 |
| 20260901071055 | 52 | 201 | 0.0 | 0.0 | 0.00 | 0.04 | 0.04 | 99 | 1031.9 |
| 20260901070549 | 52 | 104 | 0.9 | 1.7 | 0.00 | 0.04 | 0.04 | 99 | 1031.9 |
| 20260901070044 | 52 | 227 | 0.0 | 0.0 | 0.00 | 0.04 | 0.04 | 99 | 1031.4 |
| 20260901065538 | 52 | 211 | 0.0 | 0.0 | 0.00 | 0.04 | 0.04 | 99 | 1031.9 |
| 20260901065033 | 52 | 222 | 0.0 | 0.0 | 0.00 | 0.04 | 0.04 | 99 | 1032.1 |
| 20260901064531 | 52 | 188 | 0.0 | 0.0 | 0.00 | 0.04 | 0.04 | 99 | 1032.2 |
| 20260901064027 | 52 | 224 | 0.0 | 0.0 | 0.07 | 0.04 | 0.04 | 99 | 1032.2 |
| 20260901063524 | 52 | 222 | 0.0 | 0.0 | 0.19 | 0.04 | 0.04 | 99 | 1032.1 |
| 20260901063019 | 52 | 260 | 0.9 | 1.7 | 0.17 | 0.03 | 0.03 | 99 | 1032.6 |
| 20260901062515 | 52 | 232 | 0.9 | 1.7 | 0.05 | 0.01 | 0.01 | 99 | 1032.6 |
| 20260901062011 | 52 | 228 | 0.9 | 0.9 | 0.00 | 0.00 | 0.00 | 99 | 1032.1 |
| 20260901061507 | 52 | 224 | 0.0 | 0.0 | 0.00 | 0.00 | 0.00 | 99 | 1031.9 |
| 20260901061006 | 52 | 215 | 0.0 | 0.0 | 0.00 | 0.00 | 0.00 | 99 | 1031.8 |
| 20260901060502 | 52 | 215 | 0.0 | 0.0 | 0.00 | 0.00 | 0.00 | 99 | 1032.1 |
| 20260901060002 | 52 | 221 | 0.0 | 0.0 | 0.00 | 0.07 | 0.07 | 99 | 1031.9 |
| 20260901055458 | 52 | 212 | 1.7 | 1.7 | 0.00 | 0.07 | 0.07 | 99 | 1032.1 |
| 20260901054954 | 52 | 235 | 0.0 | 0.0 | 0.07 | 0.07 | 0.07 | 99 | 1032.1 |
| 20260901054451 | 52 | 188 | 0.0 | 0.0 | 0.07 | 0.07 | 0.07 | 99 | 1032.2 |
| 20260901053947 | 52 | 170 | 1.7 | 1.7 | 0.00 | 0.06 | 0.06 | 99 | 1032.2 |
| 20260901053442 | 52 | 204 | 0.0 | 0.0 | 0.00 | 0.06 | 0.06 | 99 | 1032.6 |
| 20260901052938 | 51 | 218 | 0.0 | 0.0 | 0.00 | 0.06 | 0.06 | 99 | 1031.9 |
| 20260901052433 | 51 | 188 | 0.0 | 0.0 | 0.00 | 0.06 | 0.06 | 99 | 1031.9 |
| 20260901051931 | 51 | 220 | 0.0 | 0.0 | 0.00 | 0.06 | 0.06 | 99 | 1031.9 |
| 20260901051427 | 52 | 186 | 0.9 | 0.9 | 0.00 | 0.06 | 0.06 | 99 | 1031.7 |
| 20260901050921 | 52 | 213 | 0.0 | 0.0 | 0.00 | 0.06 | 0.06 | 99 | 1032.2 |
| 20260901050418 | 52 | 214 | 0.0 | 0.0 | 0.00 | 0.06 | 0.06 | 99 | 1031.9 |
| 20260901045917 | 52 | 205 | 0.0 | 0.0 | 0.00 | 0.06 | 0.06 | 99 | 1032.1 |
| 20260901045412 | 52 | 209 | 0.0 | 0.0 | 0.00 | 0.06 | 0.06 | 99 | 1032.6 |
| 20260901044907 | 52 | 201 | 0.0 | 0.9 | 0.00 | 0.06 | 0.06 | 99 | 1032.2 |
| 20260901044402 | 52 | 226 | 0.0 | 0.0 | 0.00 | 0.06 | 0.06 | 99 | 1032.2 |
| 20260901043858 | 52 | 221 | 0.0 | 0.0 | 0.00 | 0.06 | 0.06 | 99 | 1032.2 |
| 20260901043354 | 52 | 221 | 0.0 | 0.0 | 0.00 | 0.06 | 0.06 | 99 | 1032.1 |
| 20260901042849 | 52 | 195 | 0.9 | 0.9 | 0.00 | 0.06 | 0.06 | 99 | 1032.3 |
| 20260901042343 | 52 | 202 | 0.0 | 0.9 | 0.00 | 0.06 | 0.06 | 99 | 1032.4 |
| 20260901041838 | 53 | 219 | 0.0 | 0.0 | 0.00 | 0.06 | 0.06 | 99 | 1032.2 |
| 20260901041333 | 52 | 222 | 0.0 | 0.0 | 0.00 | 0.06 | 0.06 | 99 | 1032.2 |
| 20260901040828 | 53 | 226 | 0.9 | 1.7 | 0.00 | 0.06 | 0.06 | 99 | 1032.3 |
| 20260901040327 | 53 | 209 | 0.0 | 0.9 | 0.00 | 0.06 | 0.06 | 99 | 1032.3 |
| 20260901035826 | 53 | 214 | 0.9 | 0.9 | 0.00 | 0.06 | 0.06 | 99 | 1032.4 |
| 20260901035325 | 53 | 199 | 0.9 | 0.9 | 0.00 | 0.06 | 0.06 | 99 | 1032.4 |
| 20260901034824 | 53 | 159 | 0.9 | 0.9 | 0.00 | 0.06 | 0.06 | 99 | 1031.9 |
| 20260901034320 | 54 | 174 | 0.9 | 0.9 | 0.00 | 0.06 | 0.06 | 99 | 1032.4 |
| 20260901033819 | 54 | 213 | 0.9 | 0.9 | 0.00 | 0.06 | 0.06 | 99 | 1032.2 |
| 20260901033318 | 54 | 211 | 1.7 | 1.7 | 0.00 | 0.06 | 0.06 | 99 | 1032.2 |
| 20260901032818 | 54 | 186 | 1.7 | 1.7 | 0.00 | 0.06 | 0.06 | 99 | 1032.4 |
| 20260901032317 | 54 | 198 | 0.9 | 1.7 | 0.00 | 0.06 | 0.06 | 99 | 1032.3 |
| 20260901031812 | 54 | 178 | 1.7 | 1.7 | 0.00 | 0.06 | 0.06 | 99 | 1032.1 |
| 20260901031308 | 54 | 15 | 1.7 | 2.6 | 0.00 | 0.06 | 0.06 | 99 | 1031.8 |
| 20260901030807 | 54 | 243 | 2.6 | 2.6 | 0.00 | 0.06 | 0.06 | 99 | 1031.7 |
| 20260901030303 | 55 | 237 | 2.6 | 2.6 | 0.00 | 0.06 | 0.06 | 99 | 1031.8 |
| 20260901025802 | 54 | 224 | 0.0 | 0.0 | 0.00 | 0.06 | 0.06 | 99 | 1032.1 |
| 20260901025257 | 54 | 208 | 0.0 | 0.0 | 0.00 | 0.06 | 0.06 | 99 | 1032.1 |
| 20260901024752 | 54 | 184 | 0.9 | 1.7 | 0.00 | 0.06 | 0.06 | 99 | 1032.2 |
| 20260901024251 | 54 | 234 | 0.9 | 0.9 | 0.05 | 0.06 | 0.06 | 99 | 1032.6 |
| 20260901023749 | 54 | 176 | 0.9 | 0.9 | 0.05 | 0.06 | 0.06 | 98 | 1032.8 |
| 20260901023244 | 54 | 219 | 0.0 | 0.0 | 0.07 | 0.05 | 0.05 | 98 | 1033.2 |
| 20260901022740 | 55 | 179 | 0.9 | 0.9 | 0.07 | 0.05 | 0.05 | 97 | 1033.2 |
| 20260901022235 | 55 | 184 | 1.7 | 1.7 | 0.07 | 0.04 | 0.04 | 96 | 1033.3 |
| 20260901021730 | 56 | 174 | 0.9 | 0.9 | 0.12 | 0.04 | 0.04 | 95 | 1033.2 |
| 20260901021226 | 56 | 203 | 0.9 | 0.9 | 0.12 | 0.03 | 0.03 | 92 | 1033.4 |
| 20260901020721 | 58 | 189 | 1.7 | 2.6 | 0.12 | 0.02 | 0.02 | 89 | 1033.3 |
| 20260901020216 | 59 | 181 | 3.5 | 6.1 | 0.05 | 0.01 | 0.01 | 83 | 1033.2 |
| 20260901015711 | 60 | 219 | 0.0 | 0.9 | 0.00 | 0.00 | 0.00 | 84 | 1032.7 |
| 20260901015206 | 60 | 211 | 0.9 | 0.9 | 0.00 | 0.00 | 0.00 | 82 | 1032.6 |
| 20260901014701 | 60 | 219 | 0.0 | 0.0 | 0.00 | 0.00 | 0.00 | 81 | 1032.3 |
| 20260901014157 | 60 | 215 | 0.0 | 0.0 | 0.00 | 0.00 | 0.00 | 81 | 1032.2 |
| 20260901013653 | 60 | 224 | 0.0 | 0.0 | 0.00 | 0.00 | 0.00 | 78 | 1032.2 |
| 20260901013148 | 60 | 213 | 0.9 | 0.9 | 0.00 | 0.00 | 0.00 | 79 | 1031.9 |
| 20260901012642 | 60 | 214 | 0.9 | 0.9 | 0.00 | 0.00 | 0.00 | 79 | 1032.1 |
| 20260901012138 | 60 | 215 | 0.0 | 0.0 | 0.00 | 0.00 | 0.00 | 81 | 1032.2 |
| 20260901011634 | 61 | 216 | 0.0 | 0.9 | 0.00 | 0.00 | 0.00 | 79 | 1031.7 |
| 20260901011132 | 61 | 196 | 2.6 | 4.3 | 0.00 | 0.00 | 0.00 | 75 | 1031.4 |
| 20260901010627 | 65 | 160 | 1.7 | 1.7 | 0.00 | 0.00 | 0.00 | 63 | 1031.0 |
| 20260901010127 | 65 | 172 | 1.7 | 1.7 | 0.00 | 0.00 | 0.00 | 61 | 1031.3 |
| 20260901005626 | 66 | 163 | 0.9 | 1.7 | 0.00 | 0.00 | 0.00 | 59 | 1031.0 |
| 20260901005122 | 67 | 192 | 1.7 | 1.7 | 0.00 | 0.00 | 0.00 | 57 | 1030.7 |
| 20260901004621 | 67 | 71 | 1.7 | 2.6 | 0.00 | 0.00 | 0.00 | 56 | 1030.9 |
| 20260901004116 | 68 | 206 | 0.9 | 1.7 | 0.00 | 0.00 | 0.00 | 55 | 1031.0 |
| 20260901003611 | 69 | 8 | 3.5 | 6.1 | 0.00 | 0.00 | 0.00 | 52 | 1030.7 |
| 20260901003110 | 69 | 9 | 2.6 | 4.3 | 0.00 | 0.00 | 0.00 | 49 | 1030.4 |
| 20260901002610 | 70 | 256 | 0.9 | 1.7 | 0.00 | 0.00 | 0.00 | 48 | 1030.4 |
| 20260901002104 | 70 | 8 | 3.5 | 5.2 | 0.00 | 0.00 | 0.00 | 48 | 1030.7 |
| 20260901001559 | 70 | 309 | 0.9 | 1.7 | 0.00 | 0.00 | 0.00 | 48 | 1030.5 |
| 20260901001054 | 70 | 203 | 0.9 | 1.7 | 0.00 | 0.00 | 0.00 | 47 | 1030.7 |
| 20260901000549 | 70 | 183 | 0.9 | 0.9 | 0.00 | 0.00 | 0.00 | 47 | 1030.4 |
| 20260901000045 | 71 | 206 | 0.0 | 0.9 | 0.00 | 0.00 | 0.00 | 46 | 1030.9 |
| 20260831235538 | 71 | 192 | 0.0 | 0.0 | 0.00 | 0.00 | 0.00 | 46 | 1030.7 |
| 20260831235029 | 71 | 17 | 3.5 | 4.3 | 0.00 | 0.00 | 0.00 | 45 | 1030.7 |
| 20260831234522 | 71 | 271 | 1.7 | 2.6 | 0.00 | 0.00 | 0.00 | 44 | 1030.3 |
| 20260831234019 | 71 | 206 | 0.9 | 0.9 | 0.00 | 0.00 | 0.00 | 45 | 1030.5 |
| 20260831233513 | 71 | 219 | 0.0 | 0.0 | 0.00 | 0.00 | 0.00 | 46 | 1030.4 |
| 20260831233009 | 71 | 173 | 0.0 | 0.0 | 0.00 | 0.00 | 0.00 | 47 | 1030.5 |
| 20260831232504 | 71 | 219 | 0.0 | 0.0 | 0.00 | 0.00 | 0.00 | 46 | 1030.4 |
| 20260831232000 | 71 | 199 | 0.9 | 0.9 | 0.00 | 0.00 | 0.00 | 47 | 1030.4 |
| 20260831231456 | 71 | 262 | 2.6 | 2.6 | 0.00 | 0.00 | 0.00 | 46 | 1030.5 |
| 20260831230951 | 71 | 258 | 0.9 | 1.7 | 0.00 | 0.00 | 0.00 | 47 | 1030.7 |
| 20260831230446 | 72 | 66 | 2.6 | 5.2 | 0.00 | 0.00 | 0.00 | 45 | 1030.4 |
| 20260831225941 | 72 | 230 | 0.9 | 1.7 | 0.00 | 0.00 | 0.00 | 45 | 1030.4 |
| 20260831225437 | 72 | 220 | 0.0 | 0.0 | 0.00 | 0.00 | 0.00 | 44 | 1030.5 |
| 20260831224932 | 72 | 196 | 2.6 | 4.3 | 0.00 | 0.00 | 0.00 | 44 | 1030.7 |
| 20260831224431 | 72 | 337 | 1.7 | 1.7 | 0.00 | 0.00 | 0.00 | 44 | 1030.8 |
| 20260831223926 | 73 | 321 | 1.7 | 2.6 | 0.00 | 0.00 | 0.00 | 44 | 1030.5 |
| 20260831223422 | 72 | 205 | 0.0 | 0.0 | 0.00 | 0.00 | 0.00 | 45 | 1030.7 |
| 20260831222918 | 72 | 54 | 3.5 | 5.2 | 0.00 | 0.00 | 0.00 | 45 | 1030.7 |
| 20260831222414 | 72 | 201 | 0.9 | 0.9 | 0.00 | 0.00 | 0.00 | 46 | 1030.9 |
| 20260831221908 | 73 | 128 | 1.7 | 2.6 | 0.00 | 0.00 | 0.00 | 45 | 1030.7 |
| 20260831221404 | 73 | 347 | 2.6 | 4.3 | 0.00 | 0.00 | 0.00 | 45 | 1030.7 |
| 20260831220859 | 73 | 139 | 3.5 | 4.3 | 0.00 | 0.00 | 0.00 | 44 | 1030.7 |
| 20260831220355 | 74 | 6 | 1.7 | 1.7 | 0.00 | 0.00 | 0.00 | 44 | 1031.0 |
| 20260831215850 | 73 | 33 | 0.9 | 1.7 | 0.00 | 0.00 | 0.00 | 46 | 1030.9 |
| 20260831215345 | 72 | 204 | 0.9 | 1.7 | 0.00 | 0.00 | 0.00 | 47 | 1031.0 |
| 20260831214842 | 72 | 357 | 4.3 | 6.1 | 0.00 | 0.00 | 0.00 | 46 | 1030.5 |
| 20260831214340 | 72 | 126 | 1.7 | 1.7 | 0.00 | 0.00 | 0.00 | 46 | 1031.0 |
| 20260831213839 | 73 | 221 | 0.0 | 0.9 | 0.00 | 0.00 | 0.00 | 45 | 1031.0 |
| 20260831213336 | 73 | 98 | 2.6 | 4.3 | 0.00 | 0.00 | 0.00 | 45 | 1030.9 |
| 20260831212831 | 73 | 212 | 0.9 | 1.7 | 0.00 | 0.00 | 0.00 | 46 | 1031.0 |
| 20260831212328 | 73 | 210 | 1.7 | 2.6 | 0.00 | 0.00 | 0.00 | 46 | 1030.9 |
| 20260831211826 | 73 | 49 | 3.5 | 4.3 | 0.00 | 0.00 | 0.00 | 45 | 1031.0 |
| 20260831211322 | 75 | 223 | 1.7 | 1.7 | 0.00 | 0.00 | 0.00 | 41 | 1031.3 |
| 20260831210821 | 73 | 263 | 1.7 | 2.6 | 0.00 | 0.00 | 0.00 | 40 | 1031.2 |
| 20260831210317 | 74 | 228 | 0.9 | 1.7 | 0.00 | 0.00 | 0.00 | 41 | 1031.2 |
| 20260831205812 | 75 | 163 | 0.9 | 1.7 | 0.00 | 0.00 | 0.00 | 38 | 1031.5 |
| 20260831205308 | 75 | 161 | 0.0 | 0.9 | 0.00 | 0.00 | 0.00 | 39 | 1031.4 |
| 20260831204807 | 75 | 291 | 0.9 | 0.9 | 0.00 | 0.00 | 0.00 | 39 | 1031.5 |
| 20260831204307 | 74 | 269 | 0.0 | 0.9 | 0.00 | 0.00 | 0.00 | 41 | 1031.5 |
| 20260831203806 | 74 | 299 | 0.9 | 1.7 | 0.00 | 0.00 | 0.00 | 41 | 1031.7 |
| 20260831203301 | 74 | 4 | 3.5 | 4.3 | 0.00 | 0.00 | 0.00 | 39 | 1031.8 |
| 20260831202759 | 73 | 239 | 0.9 | 0.9 | 0.00 | 0.00 | 0.00 | 41 | 1031.7 |
| 20260831202254 | 73 | 165 | 0.9 | 1.7 | 0.00 | 0.00 | 0.00 | 41 | 1031.5 |
| 20260831201748 | 73 | 56 | 1.7 | 2.6 | 0.00 | 0.00 | 0.00 | 41 | 1031.7 |
| 20260831201247 | 73 | 118 | 0.9 | 1.7 | 0.00 | 0.00 | 0.00 | 42 | 1031.8 |
| 20260831200743 | 73 | 307 | 2.6 | 4.3 | 0.00 | 0.00 | 0.00 | 41 | 1032.1 |
| 20260831200238 | 74 | 186 | 4.3 | 7.8 | 0.00 | 0.00 | 0.00 | 41 | 1032.2 |
| 20260831195733 | 74 | 271 | 0.9 | 1.7 | 0.00 | 0.00 | 0.00 | 41 | 1032.1 |
| 20260831195229 | 73 | 23 | 3.5 | 6.1 | 0.00 | 0.00 | 0.00 | 41 | 1031.9 |
| 20260831194724 | 73 | 278 | 0.9 | 1.7 | 0.00 | 0.00 | 0.00 | 41 | 1032.2 |
| 20260831194220 | 72 | 2 | 1.7 | 1.7 | 0.00 | 0.00 | 0.00 | 43 | 1032.3 |
| 20260831193713 | 72 | 149 | 2.6 | 4.3 | 0.00 | 0.00 | 0.00 | 43 | 1031.8 |
| 20260831193208 | 72 | 150 | 0.9 | 1.7 | 0.00 | 0.00 | 0.00 | 44 | 1032.3 |
| 20260831192703 | 72 | 21 | 1.7 | 2.6 | 0.00 | 0.00 | 0.00 | 44 | 1032.3 |
| 20260831192159 | 72 | 312 | 0.9 | 0.9 | 0.00 | 0.00 | 0.00 | 44 | 1032.6 |
| 20260831191654 | 72 | 129 | 0.9 | 1.7 | 0.00 | 0.00 | 0.00 | 44 | 1032.4 |
| 20260831191150 | 72 | 289 | 1.7 | 1.7 | 0.00 | 0.00 | 0.00 | 44 | 1032.6 |
| 20260831190640 | 72 | 25 | 1.7 | 1.7 | 0.00 | 0.00 | 0.00 | 45 | 1032.6 |
| 20260831190139 | 72 | 218 | 0.9 | 1.7 | 0.00 | 0.00 | 0.00 | 45 | 1032.6 |
| 20260831185634 | 73 | 229 | 1.7 | 2.6 | 0.00 | 0.00 | 0.00 | 42 | 1032.7 |
| 20260831185129 | 73 | 229 | 0.9 | 0.9 | 0.00 | 0.00 | 0.00 | 42 | 1032.8 |
| 20260831184624 | 73 | 232 | 0.9 | 1.7 | 0.00 | 0.00 | 0.00 | 41 | 1032.8 |
| 20260831184120 | 73 | 155 | 4.3 | 5.2 | 0.00 | 0.00 | 0.00 | 41 | 1032.9 |
| 20260831183619 | 73 | 230 | 0.0 | 0.0 | 0.00 | 0.00 | 0.00 | 40 | 1032.8 |
| 20260831183118 | 72 | 223 | 0.0 | 0.9 | 0.00 | 0.00 | 0.00 | 43 | 1033.1 |
| 20260831182617 | 72 | 230 | 0.9 | 0.9 | 0.00 | 0.00 | 0.00 | 41 | 1033.1 |
| 20260831182114 | 71 | 230 | 0.9 | 0.9 | 0.00 | 0.00 | 0.00 | 43 | 1033.1 |
| 20260831181613 | 71 | 271 | 0.9 | 0.9 | 0.00 | 0.00 | 0.00 | 41 | 1033.1 |
| 20260831181108 | 72 | 219 | 0.0 | 0.0 | 0.00 | 0.00 | 0.00 | 44 | 1032.8 |
| 20260831180603 | 72 | 229 | 0.9 | 1.7 | 0.00 | 0.00 | 0.00 | 43 | 1032.9 |
| 20260831180058 | 72 | 242 | 2.6 | 2.6 | 0.00 | 0.00 | 0.00 | 43 | 1032.9 |
| 20260831175553 | 72 | 217 | 0.0 | 0.9 | 0.00 | 0.00 | 0.00 | 41 | 1033.4 |
| 20260831175050 | 72 | 177 | 1.7 | 1.7 | 0.00 | 0.00 | 0.00 | 42 | 1033.1 |
| 20260831174544 | 71 | 225 | 1.7 | 1.7 | 0.00 | 0.00 | 0.00 | 44 | 1033.2 |
| 20260831174044 | 71 | 218 | 1.7 | 1.7 | 0.00 | 0.00 | 0.00 | 44 | 1033.2 |
| 20260831173542 | 71 | 223 | 0.0 | 0.0 | 0.00 | 0.00 | 0.00 | 46 | 1033.3 |
| 20260831173039 | 71 | 220 | 0.9 | 0.9 | 0.00 | 0.00 | 0.00 | 47 | 1033.2 |
| 20260831172534 | 71 | 209 | 2.6 | 2.6 | 0.00 | 0.00 | 0.00 | 45 | 1033.2 |
| 20260831172029 | 70 | 231 | 0.9 | 1.7 | 0.00 | 0.00 | 0.00 | 46 | 1033.2 |
| 20260831171524 | 71 | 234 | 0.9 | 1.7 | 0.00 | 0.00 | 0.00 | 53 | 1033.1 |
| 20260831171021 | 70 | 148 | 1.7 | 2.6 | 0.00 | 0.00 | 0.00 | 48 | 1032.9 |
| 20260831170517 | 71 | 349 | 1.7 | 1.7 | 0.00 | 0.00 | 0.00 | 43 | 1033.2 |
| 20260831170015 | 71 | 356 | 0.9 | 0.9 | 0.00 | 0.00 | 0.00 | 42 | 1033.2 |
| 20260831165514 | 71 | 67 | 0.0 | 0.9 | 0.00 | 0.00 | 0.00 | 42 | 1033.4 |
| 20260831165011 | 70 | 316 | 2.6 | 2.6 | 0.00 | 0.00 | 0.00 | 47 | 1033.7 |
| 20260831164507 | 70 | 231 | 0.0 | 0.9 | 0.00 | 0.00 | 0.00 | 46 | 1033.2 |
| 20260831164002 | 70 | 350 | 2.6 | 2.6 | 0.00 | 0.00 | 0.00 | 46 | 1033.1 |
| 20260831163457 | 70 | 0 | 2.6 | 2.6 | 0.00 | 0.00 | 0.00 | 47 | 1033.2 |
| 20260831162956 | 70 | 344 | 3.5 | 4.3 | 0.00 | 0.00 | 0.00 | 48 | 1033.3 |
| 20260831162452 | 70 | 283 | 1.7 | 1.7 | 0.00 | 0.00 | 0.00 | 48 | 1033.1 |
| 20260831161949 | 70 | 270 | 0.9 | 1.7 | 0.00 | 0.00 | 0.00 | 48 | 1033.1 |
| 20260831161446 | 69 | 246 | 2.6 | 4.3 | 0.00 | 0.00 | 0.00 | 50 | 1033.1 |
| 20260831160942 | 69 | 219 | 0.0 | 0.0 | 0.00 | 0.00 | 0.00 | 50 | 1033.1 |
| 20260831160441 | 68 | 39 | 0.9 | 0.9 | 0.00 | 0.00 | 0.00 | 52 | 1033.2 |
| 20260831155936 | 67 | 231 | 1.7 | 1.7 | 0.00 | 0.00 | 0.00 | 53 | 1032.6 |
| 20260831155436 | 67 | 4 | 1.7 | 1.7 | 0.00 | 0.00 | 0.00 | 53 | 1033.2 |
| 20260831154932 | 67 | 344 | 1.7 | 1.7 | 0.00 | 0.00 | 0.00 | 54 | 1032.6 |
| 20260831154428 | 66 | 221 | 0.0 | 0.9 | 0.00 | 0.00 | 0.00 | 54 | 1033.1 |
| 20260831153926 | 66 | 358 | 1.7 | 1.7 | 0.00 | 0.00 | 0.00 | 55 | 1032.8 |
| 20260831153417 | 67 | 328 | 0.9 | 0.9 | 0.00 | 0.00 | 0.00 | 53 | 1033.1 |
| 20260831152913 | 66 | 148 | 2.6 | 2.6 | 0.00 | 0.00 | 0.00 | 53 | 1033.1 |
| 20260831152408 | 67 | 221 | 0.0 | 0.0 | 0.00 | 0.00 | 0.00 | 53 | 1032.6 |
| 20260831151903 | 66 | 266 | 0.9 | 1.7 | 0.00 | 0.00 | 0.00 | 53 | 1032.8 |
| 20260831151402 | 66 | 275 | 1.7 | 1.7 | 0.00 | 0.00 | 0.00 | 52 | 1032.7 |
| 20260831150857 | 66 | 25 | 0.9 | 0.9 | 0.00 | 0.00 | 0.00 | 53 | 1033.1 |
| 20260831150353 | 66 | 355 | 0.9 | 1.7 | 0.00 | 0.00 | 0.00 | 54 | 1032.8 |
| 20260831145852 | 66 | 228 | 0.0 | 0.0 | 0.00 | 0.00 | 0.00 | 51 | 1032.7 |
| 20260831145349 | 65 | 234 | 0.0 | 0.9 | 0.00 | 0.00 | 0.00 | 52 | 1032.7 |
| 20260831144844 | 65 | 194 | 0.0 | 0.0 | 0.00 | 0.00 | 0.00 | 55 | 1032.9 |
| 20260831144340 | 64 | 242 | 0.0 | 0.9 | 0.00 | 0.00 | 0.00 | 56 | 1032.8 |
| 20260831143835 | 65 | 261 | 0.0 | 0.9 | 0.00 | 0.00 | 0.00 | 58 | 1033.1 |
| 20260831143330 | 64 | 205 | 0.0 | 0.0 | 0.00 | 0.00 | 0.00 | 61 | 1033.1 |
| 20260831142825 | 64 | 216 | 0.0 | 0.0 | 0.00 | 0.00 | 0.00 | 62 | 1032.8 |
| 20260831142320 | 63 | 216 | 0.0 | 0.0 | 0.00 | 0.00 | 0.00 | 59 | 1032.8 |
| 20260831141820 | 62 | 222 | 0.0 | 0.0 | 0.00 | 0.00 | 0.00 | 60 | 1032.8 |
| 20260831141315 | 62 | 220 | 0.0 | 0.0 | 0.00 | 0.00 | 0.00 | 60 | 1032.7 |
| 20260831140810 | 62 | 222 | 0.0 | 0.0 | 0.00 | 0.00 | 0.00 | 60 | 1032.9 |
| 20260831140304 | 61 | 215 | 0.0 | 0.0 | 0.00 | 0.00 | 0.00 | 62 | 1032.3 |
| 20260831135802 | 60 | 210 | 0.0 | 0.0 | 0.00 | 0.00 | 0.00 | 63 | 1032.7 |
| 20260831135258 | 59 | 190 | 0.0 | 0.0 | 0.00 | 0.00 | 0.00 | 65 | 1032.4 |
| 20260831134753 | 58 | 206 | 0.0 | 0.0 | 0.00 | 0.00 | 0.00 | 65 | 1032.2 |
| 20260831134250 | 57 | 194 | 0.0 | 0.9 | 0.00 | 0.00 | 0.00 | 66 | 1032.4 |
| 20260831133748 | 56 | 226 | 0.0 | 0.0 | 0.00 | 0.00 | 0.00 | 67 | 1032.3 |
| 20260831133248 | 56 | 228 | 0.0 | 0.0 | 0.00 | 0.00 | 0.00 | 68 | 1032.6 |
| 20260831132744 | 55 | 203 | 0.0 | 0.9 | 0.00 | 0.00 | 0.00 | 66 | 1032.3 |
| 20260831132239 | 55 | 209 | 0.0 | 0.0 | 0.00 | 0.00 | 0.00 | 66 | 1032.2 |
| 20260831131738 | 54 | 177 | 1.7 | 1.7 | 0.00 | 0.00 | 0.00 | 68 | 1032.1 |
| 20260831131235 | 54 | 220 | 0.0 | 0.0 | 0.00 | 0.00 | 0.00 | 69 | 1031.9 |
| 20260831130730 | 53 | 196 | 0.9 | 0.9 | 0.00 | 0.00 | 0.00 | 69 | 1031.8 |
| 20260831130225 | 53 | 187 | 0.9 | 0.9 | 0.00 | 0.00 | 0.00 | 71 | 1031.8 |
| 20260831125723 | 52 | 218 | 0.0 | 0.0 | 0.00 | 0.00 | 0.00 | 71 | 1031.7 |
| 20260831125220 | 53 | 193 | 0.9 | 0.9 | 0.00 | 0.00 | 0.00 | 72 | 1031.9 |
| 20260831124714 | 53 | 199 | 0.0 | 0.0 | 0.00 | 0.00 | 0.00 | 70 | 1031.5 |
| 20260831124211 | 53 | 196 | 0.0 | 0.9 | 0.00 | 0.00 | 0.00 | 70 | 1031.8 |
| 20260831123710 | 52 | 216 | 0.9 | 0.9 | 0.00 | 0.00 | 0.00 | 72 | 1031.7 |
| 20260831123209 | 52 | 224 | 0.0 | 0.0 | 0.00 | 0.00 | 0.00 | 72 | 1031.4 |
| 20260831122704 | 52 | 215 | 0.0 | 0.0 | 0.00 | 0.00 | 0.00 | 74 | 1031.4 |
| 20260831122200 | 52 | 204 | 0.0 | 0.0 | 0.00 | 0.00 | 0.00 | 73 | 1031.5 |
| 20260831121659 | 52 | 215 | 0.0 | 0.0 | 0.00 | 0.00 | 0.00 | 72 | 1031.2 |
| 20260831121156 | 52 | 149 | 2.6 | 2.6 | 0.00 | 0.00 | 0.00 | 74 | 1031.4 |
| 20260831120651 | 53 | 226 | 0.0 | 0.0 | 0.00 | 0.00 | 0.00 | 72 | 1031.4 |
| 20260831120145 | 53 | 203 | 0.9 | 0.9 | 0.00 | 0.00 | 0.00 | 70 | 1031.3 |
| 20260831115641 | 52 | 195 | 0.9 | 0.9 | 0.00 | 0.00 | 0.00 | 74 | 1031.4 |
| 20260831115136 | 52 | 219 | 0.0 | 0.0 | 0.00 | 0.00 | 0.00 | 74 | 1031.4 |
| 20260831114635 | 52 | 172 | 1.7 | 1.7 | 0.00 | 0.00 | 0.00 | 74 | 1031.3 |
| 20260831114101 | 54 | 180 | 0.9 | 1.7 | 0.00 | 0.00 | 0.00 | 69 | 1030.9 |
| 20260831113600 | 54 | 180 | 0.9 | 1.7 | 0.00 | 0.00 | 0.00 | 69 | 1030.9 |
| 20260831113056 | 54 | 181 | 1.7 | 1.7 | 0.00 | 0.00 | 0.00 | 71 | 1030.9 |
| 20260831112555 | 55 | 194 | 0.0 | 0.9 | 0.00 | 0.00 | 0.00 | 68 | 1031.3 |
| 20260831112050 | 53 | 213 | 0.0 | 0.9 | 0.00 | 0.00 | 0.00 | 69 | 1031.3 |
| 20260831111546 | 53 | 213 | 0.0 | 0.0 | 0.00 | 0.00 | 0.00 | 74 | 1031.3 |
| 20260831111042 | 53 | 234 | 0.0 | 0.0 | 0.00 | 0.00 | 0.00 | 74 | 1031.2 |
| 20260831110537 | 52 | 151 | 1.7 | 1.7 | 0.00 | 0.00 | 0.00 | 78 | 1031.0 |
| 20260831110032 | 53 | 223 | 0.9 | 0.9 | 0.00 | 0.00 | 0.00 | 72 | 1031.0 |
| 20260831105531 | 52 | 199 | 0.0 | 0.0 | 0.00 | 0.00 | 0.00 | 76 | 1031.2 |
| 20260831105026 | 52 | 204 | 0.0 | 0.0 | 0.00 | 0.00 | 0.00 | 75 | 1030.9 |
| 20260831104522 | 53 | 219 | 0.0 | 0.0 | 0.00 | 0.00 | 0.00 | 75 | 1031.3 |
| 20260831104018 | 53 | 265 | 0.0 | 0.0 | 0.00 | 0.00 | 0.00 | 74 | 1030.9 |
| 20260831103513 | 53 | 207 | 0.9 | 0.9 | 0.00 | 0.00 | 0.00 | 73 | 1031.0 |
| 20260831103010 | 53 | 201 | 0.0 | 0.0 | 0.00 | 0.00 | 0.00 | 75 | 1031.0 |
| 20260831102509 | 54 | 231 | 0.9 | 0.9 | 0.00 | 0.00 | 0.00 | 72 | 1030.7 |
| 20260831102004 | 54 | 196 | 0.0 | 0.0 | 0.00 | 0.00 | 0.00 | 69 | 1030.9 |
| 20260831101459 | 54 | 231 | 0.9 | 0.9 | 0.00 | 0.00 | 0.00 | 71 | 1030.9 |
| 20260831100955 | 53 | 188 | 0.9 | 1.7 | 0.00 | 0.00 | 0.00 | 71 | 1030.8 |
| 20260831100450 | 53 | 226 | 0.0 | 0.0 | 0.00 | 0.00 | 0.00 | 72 | 1030.7 |
| 20260831095946 | 54 | 212 | 0.9 | 0.9 | 0.00 | 0.00 | 0.00 | 71 | 1030.7 |
| 20260831095445 | 53 | 177 | 0.9 | 0.9 | 0.00 | 0.00 | 0.00 | 72 | 1030.7 |
| 20260831094940 | 53 | 206 | 0.0 | 0.0 | 0.00 | 0.00 | 0.00 | 71 | 1030.5 |
| 20260831094436 | 54 | 216 | 0.0 | 0.0 | 0.00 | 0.00 | 0.00 | 70 | 1030.5 |
| 20260831093932 | 53 | 205 | 0.0 | 0.0 | 0.00 | 0.00 | 0.00 | 71 | 1030.8 |
| 20260831093426 | 54 | 222 | 0.0 | 0.0 | 0.00 | 0.00 | 0.00 | 71 | 1030.4 |
| 20260831092923 | 54 | 191 | 0.9 | 0.9 | 0.00 | 0.00 | 0.00 | 69 | 1030.3 |
| 20260831092419 | 55 | 200 | 0.0 | 0.0 | 0.00 | 0.00 | 0.00 | 70 | 1030.5 |
| 20260831091914 | 55 | 220 | 0.0 | 0.0 | 0.00 | 0.00 | 0.00 | 68 | 1030.4 |
| 20260831091409 | 54 | 182 | 0.9 | 0.9 | 0.00 | 0.00 | 0.00 | 68 | 1030.5 |
| 20260831090904 | 54 | 199 | 0.0 | 0.0 | 0.00 | 0.00 | 0.00 | 70 | 1030.4 |
| 20260831090401 | 53 | 206 | 0.0 | 0.0 | 0.00 | 0.00 | 0.00 | 72 | 1030.4 |
| 20260831085857 | 53 | 208 | 0.0 | 0.9 | 0.00 | 0.00 | 0.00 | 74 | 1030.5 |
| 20260831085356 | 54 | 223 | 0.0 | 0.0 | 0.00 | 0.00 | 0.00 | 73 | 1030.4 |
| 20260831084856 | 54 | 208 | 0.0 | 0.0 | 0.00 | 0.00 | 0.00 | 72 | 1030.5 |
| 20260831084352 | 54 | 199 | 0.9 | 1.7 | 0.00 | 0.00 | 0.00 | 67 | 1030.4 |